Prévision chaque heure sur Domdidier


  Conditions Température Point de rosée PrécipitationProbabilité d'orage Vent Pression UV Index Couverture nuageuse Visibilité
 05:49     21:08   La longueur du jour: 15:19 Aujourd'hui
19:00 29 °
Sensation de: 36.2°
16.1°   60-80%
5
Max: 23 km/h
1018.3 hPa   60% 19 km
20:00 27 °
Sensation de: 33.5°
15.8°   60-80%
5
Max: 22 km/h
1018.6 hPa   18% 19 km
21:00 24 °
Sensation de: 29.8°
15.7°   20-40%
4
Max: 18 km/h
1018.8 hPa   3% 18 km
22:00 22 °
Sensation de: 27.0°
15.9°   20-40%
3
Max: 13 km/h
1019.2 hPa   46% 18 km
23:00 20 °
Sensation de: 23.2°
15.9°   20-40%
3
Max: 11 km/h
1019.4 hPa   3% 17 km
 05:48     21:09   La longueur du jour: 15:21 Demain
00:00 18 °
Sensation de: 20.4°
15.6°   <20%
3
Max: 9 km/h
1019.4 hPa   4% 17 km
01:00 18 °
Sensation de: 19.9°
15.3°   20-40%
2
Max: 8 km/h
1019.0 hPa   45% 16 km
02:00 17 °
Sensation de: 18.1°
14.7°   20-40%
2
Max: 7 km/h
1019.0 hPa   4% 16 km
03:00 16 °
Sensation de: 16.6°
14.1°   <20%
2
Max: 7 km/h
1018.6 hPa   21% 16 km
04:00 16 °
Sensation de: 15.6°
13.8°   <20%
3
Max: 8 km/h
1018.0 hPa   52% 15 km
05:00 15 °
Sensation de: 14.7°
13.4°   <20%
3
Max: 8 km/h
1017.4 hPa   51% 15 km
06:00 15 °
Sensation de: 13.9°
13.0°   <20%
3
Max: 7 km/h
1016.8 hPa   66% 15 km
07:00 16 °
Sensation de: 15.5°
13.6° 0.3 mm <20%
3
Max: 9 km/h
1016.4 hPa   85% 13 km
08:00 17 °
Sensation de: 18.7°
14.6°   <20%
3
Max: 12 km/h
1016.0 hPa   95% 15 km
09:00 19 °
Sensation de: 22.6°
15.5°   20-40%
3
Max: 14 km/h
1015.6 hPa 96% 15 km
10:00 21 °
Sensation de: 27.1°
16.0°   20-40%
2
Max: 14 km/h
1015.0 hPa 97% 15 km
11:00 23 °
Sensation de: 30.5°
16.2°   20-40%
2
Max: 15 km/h
1014.4 hPa 98% 15 km
12:00 25 °
Sensation de: 33.0°
16.2°   40-60%
3
Max: 19 km/h
1013.6 hPa 97% 15 km
13:00 27 °
Sensation de: 35.0°
16.0°   40-60%
4
Max: 20 km/h
1013.0 hPa 97% 16 km
14:00 29 °
Sensation de: 35.6°
15.7°   60-80%
5
Max: 22 km/h
1012.2 hPa 96% 16 km
15:00 30 °
Sensation de: 35.7°
15.3°   60-80%
5
Max: 22 km/h
1011.2 hPa 98% 17 km
16:00 27 °
Sensation de: 35.7°
16.7° 0.7 mm 60-80%
4
Max: 20 km/h
1010.4 hPa 99% 12 km
17:00 27 °
Sensation de: 35.6°
16.8° 0.3 mm 60-80%
4
Max: 17 km/h
1010.0 hPa 100% 17 km
18:00 27 °
Sensation de: 35.0°
16.7°   60-80%
4
Max: 17 km/h
1010.0 hPa 100% 17 km
19:00 24 °
Sensation de: 32.0°
17.3°   40-60%
5
Max: 19 km/h
1009.6 hPa 100% 14 km
20:00 23 °
Sensation de: 28.3°
17.4° 0.3 mm 40-60%
6
Max: 18 km/h
1009.6 hPa   100% 17 km
21:00 21 °
Sensation de: 25.6°
17.3°   20-40%
6
Max: 16 km/h
1010.4 hPa   100% 17 km
22:00 18 °
Sensation de: 21.1°
18.2° 10.6 mm 20-40%
5
Max: 13 km/h
1011.6 hPa   100% 0.4 km
23:00 19 °
Sensation de: 21.6°
17.9° 2.6 mm 20-40%
5
Max: 14 km/h
1012.2 hPa   100% 2.1 km
 05:47     21:10   La longueur du jour: 15:23 Lundi 23 Mai
00:00 19 °
Sensation de: 22.1°
17.6°   20-40%
4
Max: 14 km/h
1011.8 hPa   99% 5.3 km
01:00 19 °
Sensation de: 23.1°
17.4°   20-40%
2
Max: 12 km/h
1011.0 hPa   94% 9.2 km
02:00 18 °
Sensation de: 22.8°
17.0°   20-40%
1
Max: 7 km/h
1010.4 hPa   84% 7.4 km
03:00 18 °
Sensation de: 21.9°
16.5°   <20%
1
Max: 6 km/h
1009.6 hPa   89% 8.4 km
04:00 18 °
Sensation de: 20.6°
16.1°   <20%
2
Max: 8 km/h
1009.0 hPa   96% 10 km
05:00 18 °
Sensation de: 20.1°
15.7°   20-40%
2
Max: 10 km/h
1008.4 hPa   100% 13 km
06:00 17 °
Sensation de: 19.8°
15.4°   <20%
2
Max: 9 km/h
1007.8 hPa   100% 16 km
07:00 18 °
Sensation de: 21.2°
15.4°   <20%
1
Max: 7 km/h
1007.4 hPa   100% 16 km
08:00 19 °
Sensation de: 23.2°
15.9°   <20%
1
Max: 7 km/h
1007.0 hPa   100% 16 km
09:00 20 °
Sensation de: 25.7°
16.6°   <20%
2
Max: 12 km/h
1006.8 hPa 100% 16 km
10:00 21 °
Sensation de: 26.9°
16.9°   20-40%
2
Max: 13 km/h
1006.4 hPa 100% 16 km
11:00 21 °
Sensation de: 27.6°
16.9°   40-60%
3
Max: 16 km/h
1006.0 hPa 100% 17 km
12:00 23 °
Sensation de: 29.0°
17.1°   40-60%
5
Max: 22 km/h
1005.6 hPa 95% 17 km
13:00 23 °
Sensation de: 29.9°
17.6° 0.3 mm 40-60%
6
Max: 23 km/h
1005.0 hPa 83% 14 km
14:00 25 °
Sensation de: 30.6°
17.6°   40-60%
8
Max: 26 km/h
1004.4 hPa 51% 17 km
15:00 25 °
Sensation de: 29.4°
17.4°   40-60%
11
Max: 30 km/h
1003.8 hPa 37% 18 km
16:00 23 °
Sensation de: 25.3°
18.0° 0.8 mm 40-60%
13
Max: 30 km/h
1003.4 hPa 62% 13 km
17:00 23 °
Sensation de: 21.9°
17.7°   40-60%
17
Max: 34 km/h
1003.4 hPa 51% 19 km
18:00 23 °
Sensation de: 23.0°
17.2°   20-40%
14
Max: 33 km/h
1004.0 hPa 54% 19 km